LFMDLFKC

Guest
Details From LFMD - Mandelieu
To LFKC - St Catherine
Flight Number -
Tags Generated
Created
Modified
Stats Distance 101 nm / 187 km
Max Altitude 0 ft / 0 m
Waypoints 2
Social Downloads 1
Likes 0
Share VATSIM

Download

Looking for another format? Having issues loading an existing format? Contact us
Advertisement - Login to hide

Notes

Generated

Route

LFMD LFKC

ID Type Via Altitude (ft/m) Position (lat/lon) Dist (leg/tot) Name
O LFMD APT - 0 / 0 43.54942 / 6.95166 - / 0 nm Mandelieu
O LFKC APT - 0 / 0 42.54117 / 8.79283 100 / 100 nm

Altitude Profile

Advertisement - Login to hide

LFMD

Details ICAO LFMD (CEQ)
Name Mandelieu
Region France
Timezone Europe/Paris (UTC+2.0)
Stats Elevation 12 ft / 4 m (AMSL)
Location 43.546700° 6.953100°
Runways 3
Magnetic Variation 2.215° E

METAR

LFMD 011800Z AUTO VRB03KT 9999 OVC058 11/M01 Q1017

Decode

TAF

Not found

Departure Runways

ID Width Length Bearing (true/mag) Surface Threshold Overrun Markings Lighting
05 98 ft / 30 m 2,430 ft / 741 m 45.28° / 43.07° ASPHALT 295 ft / 90 m 0 ft / 0 m VISUAL
17 148 ft / 45 m 5,287 ft / 1,611 m 172.58° / 170.37° ASPHALT 689 ft / 210 m 0 ft / 0 m PREC-APP EDGE THRESHOLD REIL-OMNI
17L 164 ft / 50 m 1,872 ft / 571 m 172.60° / 170.38° GRASS 0 ft / 0 m 0 ft / 0 m NONE
23 98 ft / 30 m 2,430 ft / 741 m 225.28° / 223.07° ASPHALT 98 ft / 30 m 0 ft / 0 m VISUAL
35 148 ft / 45 m 5,287 ft / 1,611 m 352.58° / 350.37° ASPHALT 1,148 ft / 350 m 0 ft / 0 m PREC-APP EDGE THRESHOLD REIL-OMNI
35R 164 ft / 50 m 1,872 ft / 571 m 352.60° / 350.39° GRASS 0 ft / 0 m 0 ft / 0 m NONE

LFKC

Details ICAO LFKC (CLY)
Name St Catherine
Region France
Timezone Europe/Paris (UTC+2.0)
Stats Elevation 208 ft / 63 m (AMSL)
Location 42.530800° 8.792980°
Runways 1
Magnetic Variation 2.592° E

METAR

LFKC 011800Z AUTO 19003KT 150V280 9999 4400 NSC 09/00 Q1015 NOSIG

Decode

TAF

TAF LFKC 011400Z 0115/0215 01014KT CAVOK TX16/0212Z TN02/0203Z BECMG 0115/0117 19004KT

Decode

Destination Runways

ID Width Length Bearing (true/mag) Surface Threshold Overrun Markings Lighting
18 131 ft / 40 m 7,586 ft / 2,312 m 179.81° / 177.22° CONCRETE 0 ft / 0 m 0 ft / 0 m APP CENTERLINE EDGE THRESHOLD
36 131 ft / 40 m 7,586 ft / 2,312 m 359.81° / 357.22° CONCRETE 663 ft / 202 m 0 ft / 0 m APP CENTERLINE EDGE THRESHOLD ALSF-I

Approach Navaids

Runway Type Ident Frequency Range Bearing (true/mag) Slope Elevation
18 DME CLI 109.50 MHz 18 nm / 33 km - - 230 ft / 70 m (AMSL)
18 LOC-LOC CLI 109.50 MHz 18 nm / 33 km 179.81° / 177.22 ° - 208 ft / 63 m (AMSL)

Popular Alternatives